Moline, IL

8:56 PM CDT on October 20, 2017 (GMT -0500)
Quad-City International

Weather History for KMLI - September, 2011

Change the Weather History Date:

Thursday, September 22, 2011

  Actual Average Record
Temperature  
Mean Temperature 55 °F 63 °F  
Max Temperature 65 °F 74 °F 95 °F (1937)
Min Temperature 45 °F 51 °F 32 °F (1995)
Degree Days  
Heating Degree Days 10 5  
Month to date heating degree days 86 48  
Since 1 July heating degree days 86 56  
Cooling Degree Days 0 2  
Month to date cooling degree days 67 93  
Year to date cooling degree days 1115 976  
Growing Degree Days 5 (Base 50)    
Moisture  
Dew Point 45 °F    
Average Humidity 69    
Maximum Humidity 93    
Minimum Humidity 44    
Precipitation  
Precipitation 0.00 in 0.10 in 1.62 in (2000)
Month to date precipitation 1.17 2.34  
Year to date precipitation 25.57 29.50  
Snow  
Snow 0.00 in 0.00 in - ()
Month to date snowfall 0.0 0.0  
Since 1 July snowfall 0.0 0.0  
Since 1 September snowfall 0.0 0.0  
Snow Depth 0.00 in    
Sea Level Pressure  
Sea Level Pressure 30.11 in    
Wind  
Wind Speed 5 mph (West)    
Max Wind Speed 13 mph    
Max Gust Speed 17 mph    
Visibility 10 miles    
Events      
T = Trace of Precipitation, MM = Missing Value Source: NWS Daily Summary

Daily Weather History Graph

Daily Weather History Graph

Search for Another Location

Airport or City:

Trip Planner

Search our weather history database for the weather conditions in past years. The results will help you decide how hot, cold, wet, or windy it might be!

Date:

Astronomy

Sep. 22, 2011 Rise Set
Actual Time 6:49 AM CDT 6:59 PM CDT
Civil Twilight 6:21 AM CDT 7:27 PM CDT
Nautical Twilight 5:49 AM CDT 7:59 PM CDT
Astronomical Twilight 5:16 AM CDT 8:32 PM CDT
Moon 1:06 AM CDT (9/22) 3:55 PM CDT (9/22)
Length of Visible Light 13h 05m
Length of Day
12h 10m
Waning Crescent, 28% of the Moon is Illuminated
Sep 22
Waning Crescent
Sep 27
New
Oct 3
First Quarter
Oct 11
Full
Oct 19
Last Quarter

Hourly Weather History & Observations

Time (CDT) Temp. Windchill Dew Point Humidity Pressure Visibility Wind Dir Wind Speed Gust Speed Precip Events Conditions
12:52 AM 59.0 °F - 48.9 °F 69% 30.06 in 10.0 mi NW 5.8 mph - N/A   Overcast
1:52 AM 55.9 °F - 48.0 °F 75% 30.06 in 10.0 mi WNW 4.6 mph - N/A   Scattered Clouds
2:52 AM 52.0 °F - 46.9 °F 83% 30.07 in 10.0 mi West 5.8 mph - N/A   Clear
3:52 AM 53.1 °F - 46.0 °F 77% 30.08 in 10.0 mi WNW 9.2 mph - N/A   Clear
4:52 AM 50.0 °F - 45.0 °F 83% 30.08 in 10.0 mi Calm Calm - N/A   Clear
5:52 AM 48.9 °F - 45.0 °F 86% 30.09 in 10.0 mi West 3.5 mph - N/A   Clear
6:52 AM 46.0 °F 43.9 °F 44.1 °F 93% 30.11 in 10.0 mi SSW 4.6 mph - N/A   Clear
7:52 AM 48.2 °F - 44.6 °F 87% 30.12 in 10.0 mi SSW 3.5 mph - N/A   Clear
8:52 AM 53.1 °F - 46.9 °F 80% 30.14 in 10.0 mi West 6.9 mph - N/A   Clear
9:52 AM 57.0 °F - 46.0 °F 67% 30.15 in 10.0 mi West 6.9 mph - N/A   Clear
10:52 AM 60.1 °F - 45.0 °F 57% 30.15 in 10.0 mi West 10.4 mph - N/A   Clear
10:58 AM 59.0 °F - 44.6 °F 59% 30.15 in 10.0 mi West 10.4 mph - N/A   Mostly Cloudy
11:52 AM 59.0 °F - 44.1 °F 58% 30.15 in 10.0 mi West 6.9 mph 17.3 mph N/A   Mostly Cloudy
12:52 PM 61.0 °F - 44.1 °F 54% 30.14 in 10.0 mi West 8.1 mph - N/A   Overcast
1:52 PM 64.0 °F - 44.1 °F 48% 30.12 in 10.0 mi West 9.2 mph - N/A   Scattered Clouds
2:52 PM 64.0 °F - 42.1 °F 45% 30.11 in 10.0 mi WSW 5.8 mph - N/A   Partly Cloudy
3:52 PM 62.1 °F - 41.0 °F 46% 30.10 in 10.0 mi West 9.2 mph - N/A   Partly Cloudy
4:52 PM 63.0 °F - 43.0 °F 48% 30.09 in 10.0 mi West 10.4 mph - N/A   Partly Cloudy
5:52 PM 62.1 °F - 42.1 °F 48% 30.10 in 10.0 mi West 6.9 mph - N/A   Overcast
6:52 PM 59.0 °F - 43.0 °F 55% 30.11 in 10.0 mi WSW 3.5 mph - N/A   Overcast
7:52 PM 55.9 °F - 45.0 °F 67% 30.12 in 10.0 mi WSW 4.6 mph - N/A   Overcast
8:52 PM 57.2 °F - 44.6 °F 63% 30.13 in 10.0 mi North 3.5 mph - N/A   Mostly Cloudy
9:52 PM 54.0 °F - 46.0 °F 75% 30.14 in 10.0 mi North 3.5 mph - N/A   Clear
10:52 PM 53.1 °F - 44.1 °F 71% 30.14 in 10.0 mi NNE 3.5 mph - N/A   Clear
11:52 PM 48.9 °F - 44.1 °F 83% 30.14 in 10.0 mi Calm Calm - N/A   Clear